Weather in Zernovo

Russia / Bryansk Oblast     52°11′38″N   34°05′17″E
temp.,
°C
wind,
m/s
gust,
m/s
humid.,
%
clouds,
%
prec.,
mm/h
press.,
hPa
HPBL,
m
7 march, sun
sun700:00−10wsw35920 0.0 1021100
03:00−10sw510900 0.0 1019210
06:00−9sw7158235 0.0 1016385
09:00−5sw9178568 0.0 1013671
12:00−2wsw111786100 0.1 10081228
15:000wsw111890100 0.3 10051306
18:000wsw101795100 0.4 10041237
21:00−1w91594100 1.3 1004952
8 march, mon
mon800:00−3wsw3697100 1.8 1004207
03:00−3w51195100 2.2 1004496
06:00−4w5129298 0.1 1003497
09:00−5wnw6118898 0.3 1005795
12:00−4wnw71087100 0.1 10061033
15:00−2nw6971100 0.6 10081396
18:00−5wnw49780 0.0 1010334
21:00−8wnw378738 0.0 1013160
9 march, tue
tue900:00−9wnw349220 0.0 101495
03:00−10wnw339414 0.0 101563
06:00−11nw239584 0.0 101669
09:00−9nnw249292 0.0 1018286
12:00−7nnw3478100 0.0 1019793
15:00−6nnw3473100 0.1 10201056
18:00−7nw358299 0.0 1021224
21:00−10nw348784 0.1 102380
10 march, wed
wed1000:00−12nnw12900 0.0 102430
03:00−13wsw22935 0.0 102428
06:00−13wsw339268 0.0 102465
09:00−10sw479281 0.0 1024225
12:00−6wsw598486 0.0 1023643
15:00−3wsw697993 0.0 1022794
18:00−4wsw41083100 0.0 1022457
21:00−7wsw478894 0.0 1023146
11 march, thu
thu1100:00−9wsw478775 0.0 1023126
03:00−8wsw358785 0.0 1023122
06:00−8sw3686100 0.0 1023137
09:00−6wsw388493 0.0 1023264
12:00−2wsw477640 0.0 1023517
15:00−1sw577550 0.0 1022858
18:00−3ssw4985100 0.0 1021360
21:00−4s61388100 0.0 1020425